[[{"header":{"parameterUnit":"m.s-1","parameterCategory":1,"la1":30.2991,"la2":30.254,"lo1":-89.0895,"lo2":-89.0444,"dy":0.0017,"dx":0.0017,"nx":28,"ny":28,"refTime":"2024-12-08T09:00:00:Z","depth":0,"parameterNumber":2,"parameterNumberName":"U-component_of_WINDS"},"data":[0,0,0,0,0,0,0,0,0,0,0,0,0,0,0,0,0,0,0,0,0,0,0,0,0,0,0,0,0,0,0,0,0,0,0,0,0,0,0,0,0,0,0,0,0,0,0,0,0,0,0,0,0,0,0,0,0,0,-3.3437,-3.3437,0,-3.3452,-3.3452,-3.3453,-3.3326,-3.3322,-3.3319,-3.3315,-3.3333,-3.3337,-3.3341,0,0,0,0,0,0,0,0,0,0,0,0,0,-3.3298,-3.3301,-3.3437,-3.3437,-3.3437,-3.3452,-3.3452,-3.3453,-3.3327,-3.3322,-3.3318,-3.3314,-3.3332,-3.3336,-3.3341,0,0,0,0,0,0,0,0,0,0,0,0,0,-3.3341,-3.3302,-3.3437,-3.3376,-3.3371,-3.3452,-3.3452,-3.3453,-3.3327,-3.3322,-3.3317,-3.3312,-3.333,-3.3336,-3.3341,-3.3483,0,0,-3.3359,-3.3361,0,0,0,0,0,0,0,0,-3.3338,-3.3346,-3.3385,-3.338,-3.3374,-3.3382,-3.341,-3.3463,-3.3329,-3.3344,-3.3315,-3.3309,-3.3354,-3.3357,-3.3372,-3.3483,-3.3484,-3.3359,-3.3363,-3.3365,-3.3367,0,0,0,0,0,0,0,-3.3335,-3.3344,-3.3443,-3.3385,-3.3379,-3.3348,-3.3348,-3.3419,-3.3378,-3.3342,-3.3333,-3.3336,-3.335,-3.3367,-3.3371,-3.3484,-3.3359,-3.3364,-3.3368,-3.337,-3.3711,-3.3717,0,0,0,0,0,0,-3.3341,-3.3343,-3.3442,-3.3443,-3.3343,-3.3355,-3.3355,-3.3385,-3.3377,-3.3371,-3.3341,-3.3331,-3.336,-3.3365,-3.3371,-3.3535,-3.3365,-3.337,-3.3374,-3.3706,-3.3713,-3.3719,0,0,0,0,0,0,-3.3338,-3.3351,-3.3442,-3.339,-3.34,-3.3363,-3.3397,-3.3388,-3.3404,-3.3376,-3.3368,-3.3366,-3.3356,-3.3363,-3.3455,-3.3534,-3.3373,-3.3378,-3.3699,-3.3708,-3.3716,-3.3865,0,0,0,0,0,0,-3.3335,-3.335,-3.3404,-3.3393,-3.3403,-3.3526,-3.3402,-3.3392,-3.3414,-3.3401,-3.3397,-3.3392,-3.3352,-3.3448,-3.3461,-3.3539,-3.3382,-3.3692,-3.3703,-3.3713,-3.3853,-3.3878,-3.3899,0,0,0,0,0,-3.333,-3.3446,-3.3407,-3.342,-3.3469,-3.3531,-3.3537,-3.3488,-3.3421,-3.3474,-3.3456,-3.3392,-3.3523,-3.3458,-3.3472,-3.3553,-3.3687,-3.37,-3.3712,-3.3843,-3.3873,-3.3898,0,0,0,0,0,0,-3.3468,-3.3443,-3.34,-3.3516,-3.3526,-3.3509,-3.3575,-3.3522,-3.3552,-3.3538,-3.3477,-3.3477,-3.358,-3.3575,-3.3503,-3.3689,-3.3593,-3.3609,-3.3688,-3.3716,-3.3739,-3.3738,-3.3387,0,0,0,0,0,-3.3512,-3.3564,-3.354,-3.3644,-3.3651,-3.3613,-3.3638,-3.3599,-3.3608,-3.3612,-3.36,-3.3612,-3.3655,-3.3685,-3.3724,-3.3852,-3.3849,-3.3914,-3.3937,-3.3956,-3.3971,-3.4037,-3.4066,-3.3761,-3.3761,-3.376,0,0,-3.3603,-3.3596,-3.3633,-3.3672,-3.3675,-3.3731,-3.3617,-3.3681,-3.3722,-3.3622,-3.3708,-3.37,-3.3708,-3.3819,-3.3867,-3.3818,-3.4054,-3.3972,-3.3988,-3.3992,-3.4053,-3.4082,-3.4108,-3.3769,-3.3768,-3.3766,0,0,-3.3798,-3.3798,-3.3884,-3.389,-3.3896,-3.387,-3.3891,-3.3881,-3.3872,-3.3957,-3.3883,-3.393,-3.4007,-3.4016,-3.403,-3.4227,-3.4169,-3.4241,-3.4361,-3.4427,-3.4451,-3.4472,-3.4542,-3.4568,-3.4256,-3.4256,-3.4257,0,-3.3911,-3.3991,-3.3936,-3.4004,-3.4023,-3.3934,-3.4021,-3.403,-3.4049,-3.4064,-3.4009,-3.4103,-3.4102,-3.4213,-3.4261,-3.4276,-3.4297,-3.4242,-3.4452,-3.4472,-3.4491,-3.4557,-3.4583,-3.4265,-3.4264,-3.4263,-3.4262,0,-3.4129,-3.4186,-3.4255,-3.4275,-3.4302,-3.438,-3.4336,-3.4369,-3.4328,-3.4307,-3.4395,-3.4391,-3.4427,-3.445,-3.4411,-3.4555,-3.4525,-3.4462,-3.4365,-3.453,-3.4591,-3.4616,-3.4278,-3.4274,-3.4272,-3.427,0,0,-3.4413,-3.44,-3.4426,-3.4434,-3.4434,-3.4477,-3.455,-3.4584,-3.4614,-3.463,-3.469,-3.4756,-3.4697,-3.4714,-3.4675,-3.4732,-3.4888,-3.4662,-3.4661,-3.4704,-3.5046,-3.5094,-3.5124,-3.4849,-3.4853,-3.4857,-3.5045,0,-3.4603,-3.4726,-3.4678,-3.4806,-3.4857,-3.4773,-3.4837,-3.4844,-3.4826,-3.4867,-3.4847,-3.4895,-3.4814,-3.4823,-3.4876,-3.4858,-3.4956,-3.4843,-3.4904,-3.4907,-3.4905,-3.5155,-3.5206,-3.5384,-3.5069,-3.5073,-3.5076,0,-3.4841,-3.4865,-3.4998,-3.4988,-3.5008,-3.5066,-3.5093,-3.5133,-3.5139,-3.5122,-3.514,-3.5088,-3.5159,-3.5062,-3.5158,-3.5083,-3.5105,-3.5099,-3.5105,-3.5109,-3.5002,-3.5167,-3.5439,-3.5466,-3.5113,-3.511,-3.5107,0,-3.5034,-3.51,-3.5188,-3.5197,-3.5188,-3.523,-3.5228,-3.5229,-3.5252,-3.5276,-3.529,-3.5322,-3.534,-3.5366,-3.5324,-3.5257,-3.5426,-3.5326,-3.5414,-3.5415,-3.5454,-3.5452,-3.5735,-3.5468,-3.5468,-3.5467,-3.5467,0,-3.5251,-3.5336,-3.5275,-3.5329,-3.5421,-3.5364,-3.5457,-3.5446,-3.5447,-3.5497,-3.5426,-3.5475,-3.5416,-3.5459,-3.5427,-3.5512,-3.552,-3.5508,-3.5499,-3.5515,-3.5517,-3.5529,-3.5515,-3.5474,-3.5473,-3.5472,-3.547,0,-3.5483,-3.5446,-3.5535,-3.5518,-3.5516,-3.5585,-3.557,-3.5619,-3.5596,-3.566,-3.5672,-3.5636,-3.5683,-3.5643,-3.5689,-3.5667,-3.578,-3.5752,-3.5778,-3.577,-3.5861,-3.5853,-3.6161,-3.6198,-3.5908,-3.5911,-3.5913,0,-3.5624,-3.5687,-3.5676,-3.5705,-3.5707,-3.5754,-3.5776,-3.5723,-3.575,-3.576,-3.5809,-3.5849,-3.5879,-3.5958,-3.5936,-3.5971,-3.5944,-3.6049,-3.5948,-3.5962,-3.5945,-3.5942,-3.5948,-3.607,-3.6073,-3.6076,-3.6078,0,-3.5879,-3.5857,-3.5892,-3.5922,-3.5951,-3.5972,-3.5987,-3.6014,-3.5959,-3.5993,-3.6039,-3.6062,-3.6108,-3.615,-3.6177,-3.6174,-3.6118,-3.611,-3.6132,-3.615,-3.6162,-3.6156,-3.5834,-3.6104,-3.6101,-3.6099,-3.6098,-3.6097,-3.607,-3.6121,-3.6121,-3.6163,-3.6168,-3.6184,-3.6229,-3.621,-3.6248,-3.6281,-3.6247,-3.6304,-3.6307,-3.6337,-3.6342,-3.6385,-3.6341,-3.6374,-3.6382,-3.6391,-3.6404,-3.6155,-3.639,-3.6389,-3.6388,-3.6388,-3.6387,0,-3.632,-3.6316,-3.6355,-3.6377,-3.641,-3.6353,-3.6366,-3.6397,-3.6448,-3.6455,-3.6486,-3.6539,-3.6579,-3.6559,-3.6593,-3.6632,-3.6607,-3.6643,-3.6639,-3.664,-3.6441,-3.6418,-3.6662,-3.6662,-3.6662,-3.6662,-3.6662,-3.6662,-3.6455,-3.6539,-3.6516,-3.6602,-3.6597,-3.6651,-3.6664,-3.6677,-3.6683,-3.6745,-3.6777,-3.6764,-3.676,-3.6793,-3.6827,-3.682,-3.6836,-3.6882,-3.6866,-3.6681,-3.6654,-3.6628,-3.6606,-3.6886,-3.6886,-3.706,-3.7062,-3.7063]},{"header":{"parameterUnit":"m.s-1","parameterCategory":1,"la1":30.2991,"la2":30.254,"lo1":-89.0895,"lo2":-89.0444,"dy":0.0017,"dx":0.0017,"nx":28,"ny":28,"refTime":"2024-12-08T09:00:00:Z","depth":0,"parameterNumber":3,"parameterNumberName":"V-component_of_WINDS"},"data":[0,0,0,0,0,0,0,0,0,0,0,0,0,0,0,0,0,0,0,0,0,0,0,0,0,0,0,0,0,0,0,0,0,0,0,0,0,0,0,0,0,0,0,0,0,0,0,0,0,0,0,0,0,0,0,0,0,0,-1.214,-1.214,0,-1.2142,-1.2142,-1.2142,-1.2144,-1.2144,-1.2144,-1.2144,-1.2145,-1.2145,-1.2145,0,0,0,0,0,0,0,0,0,0,0,0,0,-1.2137,-1.2137,-1.214,-1.214,-1.214,-1.2142,-1.2142,-1.2142,-1.2144,-1.2144,-1.2144,-1.2144,-1.2145,-1.2145,-1.2145,0,0,0,0,0,0,0,0,0,0,0,0,0,-1.2138,-1.2137,-1.214,-1.2142,-1.2142,-1.2142,-1.2142,-1.2142,-1.2144,-1.2144,-1.2144,-1.2145,-1.2145,-1.2145,-1.2145,-1.2144,0,0,-1.2145,-1.2145,0,0,0,0,0,0,0,0,-1.2138,-1.2139,-1.2141,-1.2142,-1.2142,-1.2143,-1.2141,-1.2143,-1.2144,-1.2143,-1.2144,-1.2145,-1.2144,-1.2144,-1.2145,-1.2144,-1.2144,-1.2145,-1.2145,-1.2145,-1.2145,0,0,0,0,0,0,0,-1.2138,-1.2138,-1.2141,-1.2142,-1.2142,-1.2142,-1.2142,-1.2141,-1.2144,-1.2143,-1.2144,-1.2144,-1.2145,-1.2145,-1.2145,-1.2144,-1.2145,-1.2145,-1.2145,-1.2145,-1.2141,-1.214,0,0,0,0,0,0,-1.2138,-1.2138,-1.2141,-1.2141,-1.214,-1.2142,-1.2142,-1.2143,-1.2144,-1.2144,-1.2144,-1.2144,-1.2145,-1.2145,-1.2145,-1.2142,-1.2145,-1.2145,-1.2145,-1.2141,-1.214,-1.214,0,0,0,0,0,0,-1.2138,-1.2138,-1.2141,-1.214,-1.214,-1.2142,-1.2142,-1.2143,-1.2143,-1.2144,-1.2144,-1.2144,-1.2145,-1.2145,-1.2144,-1.2142,-1.2145,-1.2145,-1.2141,-1.2141,-1.214,-1.2138,0,0,0,0,0,0,-1.2138,-1.2138,-1.2138,-1.214,-1.214,-1.2141,-1.2142,-1.2143,-1.2143,-1.2143,-1.2144,-1.2144,-1.2145,-1.2144,-1.2144,-1.2142,-1.2145,-1.2141,-1.2141,-1.214,-1.2138,-1.2138,-1.2137,0,0,0,0,0,-1.2138,-1.2138,-1.2138,-1.2139,-1.214,-1.2141,-1.2141,-1.2142,-1.2143,-1.2142,-1.2143,-1.2144,-1.2142,-1.2144,-1.2144,-1.2142,-1.2141,-1.2141,-1.2141,-1.2138,-1.2138,-1.2137,0,0,0,0,0,0,-1.2136,-1.2138,-1.2139,-1.2139,-1.214,-1.2141,-1.2141,-1.2142,-1.2142,-1.2142,-1.2143,-1.2143,-1.2141,-1.2142,-1.2143,-1.214,-1.2142,-1.2142,-1.214,-1.2139,-1.2139,-1.2139,-1.2145,0,0,0,0,0,-1.2136,-1.2136,-1.2138,-1.2138,-1.2138,-1.2139,-1.2139,-1.214,-1.2141,-1.2141,-1.2141,-1.2141,-1.214,-1.214,-1.214,-1.2138,-1.2137,-1.2137,-1.2136,-1.2136,-1.2136,-1.2133,-1.2133,-1.214,-1.214,-1.214,0,0,-1.2135,-1.2136,-1.2137,-1.2138,-1.2138,-1.2138,-1.214,-1.2139,-1.2139,-1.2141,-1.214,-1.214,-1.214,-1.2138,-1.2137,-1.2138,-1.2133,-1.2136,-1.2135,-1.2135,-1.2133,-1.2132,-1.2132,-1.2139,-1.2139,-1.2139,0,0,-1.2134,-1.2135,-1.2135,-1.2135,-1.2136,-1.2136,-1.2136,-1.2137,-1.2137,-1.2136,-1.2137,-1.2136,-1.2135,-1.2135,-1.2134,-1.2131,-1.2131,-1.2131,-1.2128,-1.2126,-1.2125,-1.2125,-1.2123,-1.2122,-1.213,-1.213,-1.213,0,-1.2133,-1.2134,-1.2135,-1.2134,-1.2134,-1.2135,-1.2134,-1.2134,-1.2135,-1.2134,-1.2135,-1.2133,-1.2133,-1.2131,-1.213,-1.213,-1.2129,-1.2131,-1.2126,-1.2125,-1.2125,-1.2122,-1.2122,-1.213,-1.213,-1.213,-1.213,0,-1.2132,-1.2132,-1.2131,-1.2131,-1.2131,-1.213,-1.2131,-1.213,-1.213,-1.213,-1.2128,-1.2128,-1.2127,-1.2127,-1.2128,-1.2124,-1.2124,-1.2125,-1.2127,-1.2124,-1.2122,-1.2121,-1.213,-1.213,-1.213,-1.213,0,0,-1.2131,-1.213,-1.213,-1.2129,-1.2129,-1.2129,-1.2127,-1.2126,-1.2125,-1.2125,-1.2123,-1.2122,-1.2122,-1.2122,-1.2122,-1.212,-1.2116,-1.2121,-1.2121,-1.212,-1.2111,-1.211,-1.2109,-1.2117,-1.2116,-1.2116,-1.211,0,-1.2129,-1.2127,-1.2127,-1.2125,-1.2124,-1.2125,-1.2123,-1.2123,-1.2122,-1.2121,-1.212,-1.2119,-1.212,-1.212,-1.2118,-1.2117,-1.2114,-1.2118,-1.2114,-1.2114,-1.2114,-1.2108,-1.2107,-1.2101,-1.211,-1.211,-1.211,0,-1.2127,-1.2126,-1.2124,-1.2122,-1.2122,-1.2121,-1.2119,-1.2118,-1.2117,-1.2116,-1.2115,-1.2115,-1.2113,-1.2114,-1.211,-1.2112,-1.2111,-1.211,-1.211,-1.2109,-1.2111,-1.2106,-1.21,-1.2099,-1.2109,-1.2109,-1.2109,0,-1.2125,-1.2123,-1.2121,-1.2121,-1.212,-1.2118,-1.2118,-1.2116,-1.2115,-1.2113,-1.2112,-1.211,-1.2109,-1.2107,-1.2106,-1.2108,-1.2102,-1.2104,-1.21,-1.21,-1.2099,-1.2099,-1.2092,-1.2099,-1.2099,-1.2099,-1.2099,0,-1.2123,-1.2121,-1.212,-1.2119,-1.2117,-1.2117,-1.2114,-1.2113,-1.2112,-1.211,-1.211,-1.2108,-1.2107,-1.2104,-1.2104,-1.21,-1.2099,-1.2098,-1.2098,-1.2098,-1.2098,-1.2097,-1.2097,-1.2099,-1.2099,-1.2099,-1.2099,0,-1.212,-1.212,-1.2118,-1.2116,-1.2116,-1.2114,-1.2112,-1.211,-1.2109,-1.2107,-1.2106,-1.2105,-1.2101,-1.21,-1.2097,-1.2096,-1.2091,-1.2091,-1.2091,-1.2091,-1.2088,-1.2088,-1.2079,-1.2077,-1.2086,-1.2086,-1.2086,0,-1.2119,-1.2118,-1.2115,-1.2114,-1.2113,-1.2111,-1.211,-1.2109,-1.2107,-1.2105,-1.2103,-1.21,-1.2097,-1.2092,-1.209,-1.2086,-1.2086,-1.2083,-1.2086,-1.2085,-1.2085,-1.2085,-1.2084,-1.2083,-1.2083,-1.2083,-1.2083,0,-1.2116,-1.2115,-1.2113,-1.2111,-1.2109,-1.2107,-1.2105,-1.2104,-1.2103,-1.21,-1.2097,-1.2095,-1.2091,-1.2087,-1.2083,-1.2082,-1.2081,-1.2082,-1.2081,-1.208,-1.208,-1.2079,-1.2089,-1.2082,-1.2082,-1.2082,-1.2082,-1.2082,-1.2113,-1.2112,-1.2109,-1.2107,-1.2105,-1.2103,-1.2101,-1.2099,-1.2096,-1.2093,-1.2092,-1.2088,-1.2085,-1.208,-1.2078,-1.2075,-1.2075,-1.2074,-1.2074,-1.2073,-1.2072,-1.2081,-1.2074,-1.2074,-1.2074,-1.2074,-1.2074,0,-1.211,-1.2108,-1.2105,-1.2102,-1.21,-1.21,-1.2097,-1.2095,-1.2091,-1.2089,-1.2086,-1.2081,-1.2077,-1.2075,-1.207,-1.2068,-1.2067,-1.2066,-1.2066,-1.2066,-1.2073,-1.2073,-1.2067,-1.2067,-1.2067,-1.2067,-1.2067,-1.2067,-1.2107,-1.2104,-1.2103,-1.2098,-1.2096,-1.2092,-1.209,-1.2088,-1.2085,-1.208,-1.2077,-1.2075,-1.2072,-1.2067,-1.2063,-1.2062,-1.206,-1.2059,-1.2058,-1.2065,-1.2065,-1.2066,-1.2067,-1.2059,-1.2059,-1.2052,-1.2052,-1.2052]}]]